H1 CPF 2 NER 2021 11 4 9 308 01 glonass142 H2 2001801 9142 45358 2021 11 4 0 0 0 2021 11 7 23 45 0 900 1 1 0 0 0 1 H9 10 0 59522 0.00000 0 -18829051.817 2511912.743 -16991427.082 10 0 59522 900.00000 0 -16931098.389 1343237.762 -19001914.910 10 0 59522 1800.00000 0 -14947600.728 -100949.394 -20642391.123 10 0 59522 2700.00000 0 -12943948.880 -1805650.764 -21880941.492 10 0 59522 3600.00000 0 -10983058.422 -3743483.605 -22693499.508 10 0 59522 4500.00000 0 -9122841.007 -5875593.405 -23064313.203 10 0 59522 5400.00000 0 -7413904.702 -8153058.560 -22986247.643 10 0 59522 6300.00000 0 -5897580.141 -10518728.322 -22460917.714 10 0 59522 7200.00000 0 -4604354.427 -12909417.258 -21498649.138 10 0 59522 8100.00000 0 -3552777.245 -15258364.677 -20118269.092 10 0 59522 9000.00000 0 -2748883.478 -17497856.368 -18346731.039 10 0 59522 9900.00000 0 -2186154.890 -19561899.208 -16218581.602 10 0 59522 10800.00000 0 -1846020.488 -21388837.163 -13775280.317 10 0 59522 11700.00000 0 -1698872.631 -22923799.722 -11064385.895 10 0 59522 12600.00000 0 -1705554.245 -24120880.852 -8138625.288 10 0 59522 13500.00000 0 -1819252.783 -24944958.051 -5054863.990 10 0 59522 14400.00000 0 -1987719.579 -25373076.185 -1872997.966 10 0 59522 15300.00000 0 -2155719.767 -25395339.153 1345210.894 10 0 59522 16200.00000 0 -2267608.480 -25015273.078 4537332.930 10 0 59522 17100.00000 0 -2269923.937 -24249646.930 7641479.134 10 0 59522 18000.00000 0 -2113887.727 -23127759.071 10597496.327 10 0 59522 18900.00000 0 -1757706.650 -21690220.495 13348126.208 10 0 59522 19800.00000 0 -1168579.149 -19987286.246 15840106.315 10 0 59522 20700.00000 0 -324321.886 -18076805.141 18025192.177 10 0 59522 21600.00000 0 785451.990 -16021873.331 19861081.831 10 0 59522 22500.00000 0 2158652.668 -13888289.197 21312225.810 10 0 59522 23400.00000 0 3780560.625 -11741914.923 22350507.901 10 0 59522 24300.00000 0 5624208.115 -9646053.618 22955784.506 10 0 59522 25200.00000 0 7651280.546 -7658949.889 23116272.875 10 0 59522 26100.00000 0 9813501.791 -5831516.662 22828781.134 10 0 59522 27000.00000 0 12054447.525 -4205381.589 22098775.700 10 0 59522 27900.00000 0 14311713.120 -2811333.294 20940284.445 10 0 59522 28800.00000 0 16519347.636 -1668231.426 19375636.685 10 0 59522 29700.00000 0 18610454.313 -782425.449 17435043.997 10 0 59522 30600.00000 0 20519850.559 -147706.190 15156028.594 10 0 59522 31500.00000 0 22186677.319 254207.766 12582709.009 10 0 59522 32400.00000 0 23556849.281 452669.148 9764955.538 10 0 59522 33300.00000 0 24585243.296 486628.357 6757430.684 10 0 59522 34200.00000 0 25237532.716 402749.100 3618532.461 10 0 59522 35100.00000 0 25491589.756 253192.855 409260.650 10 0 59522 36000.00000 0 25338395.813 93166.222 -2807971.941 10 0 59522 36900.00000 0 24782420.205 -21664.407 -5970559.557 10 0 59522 37800.00000 0 23841450.264 -37780.285 -9016930.393 10 0 59522 38700.00000 0 22545879.035 93671.954 -11887755.398 10 0 59522 39600.00000 0 20937479.969 414560.498 -14527114.172 10 0 59522 40500.00000 0 19067719.953 957746.417 -16883594.145 10 0 59522 41400.00000 0 16995681.689 1745446.849 -18911300.614 10 0 59522 42300.00000 0 14785683.126 2788054.055 -20570757.120 10 0 59522 43200.00000 0 12504694.340 4083461.615 -21829678.175 10 0 59522 44100.00000 0 10219660.691 5616927.340 -22663599.108 10 0 59522 45000.00000 0 7994844.807 7361479.539 -23056350.798 10 0 59522 45900.00000 0 5889298.771 9278850.219 -23000370.431 10 0 59522 46800.00000 0 3954572.011 11320896.471 -22496842.672 10 0 59522 47700.00000 0 2232750.176 13431450.648 -21555669.089 10 0 59522 48600.00000 0 754905.965 15548521.943 -20195266.998 10 0 59522 49500.00000 0 -459974.742 17606757.251 -18442202.228 10 0 59522 50400.00000 0 -1405548.151 19540058.276 -16330663.462 10 0 59522 51300.00000 0 -2088127.985 21284245.472 -13901788.879 10 0 59522 52200.00000 0 -2526162.533 22779657.435 -11202858.578 10 0 59522 53100.00000 0 -2749197.325 23973577.144 -8286368.962 10 0 59522 54000.00000 0 -2796369.134 24822383.853 -5209007.437 10 0 59522 54900.00000 0 -2714496.513 25293341.029 -2030547.689 10 0 59522 55800.00000 0 -2555848.850 25365946.035 1187312.586 10 0 59522 56700.00000 0 -2375689.288 25032785.793 4382148.716 10 0 59522 57600.00000 0 -2229696.028 24299863.389 7492017.487 10 0 59522 58500.00000 0 -2171371.357 23186382.709 10456653.499 10 0 59522 59400.00000 0 -2249547.925 21724000.836 13218630.493 10 0 59522 60300.00000 0 -2506097.437 19955579.952 15724465.668 10 0 59522 61200.00000 0 -2973938.152 17933491.166 17925646.160 10 0 59522 62100.00000 0 -3675424.922 15717540.976 19779558.782 10 0 59522 63000.00000 0 -4621189.464 13372606.348 21250306.004 10 0 59522 63900.00000 0 -5809479.781 10966076.200 22309393.366 10 0 59522 64800.00000 0 -7226027.010 8565204.641 22936276.006 10 0 59522 65700.00000 0 -8844446.269 6234484.693 23118754.482 10 0 59522 66600.00000 0 -10627156.026 4033150.326 22853212.629 10 0 59522 67500.00000 0 -12526779.288 2012909.183 22144692.968 10 0 59522 68400.00000 0 -14487969.969 215998.946 21006807.849 10 0 59522 69300.00000 0 -16449590.086 -1326352.781 19461487.328 10 0 59522 70200.00000 0 -18347148.752 -2595001.746 17538567.614 10 0 59522 71100.00000 0 -20115402.651 -3583449.224 15275226.702 10 0 59522 72000.00000 0 -21691010.415 -4297869.765 12715276.810 10 0 59522 72900.00000 0 -23015130.487 -4756603.394 9908325.935 10 0 59522 73800.00000 0 -24035853.746 -4989133.522 6908823.629 10 0 59522 74700.00000 0 -24710368.357 -5034593.410 3775008.727 10 0 59522 75600.00000 0 -25006765.071 -4939864.228 567779.014 10 0 59522 76500.00000 0 -24905405.798 -4757345.265 -2650495.244 10 0 59522 77400.00000 0 -24399796.460 -4542491.105 -5817190.313 10 0 59522 78300.00000 0 -23496925.949 -4351220.907 -8870656.050 10 0 59522 79200.00000 0 -22217055.617 -4237310.673 -11751426.150 10 0 59522 80100.00000 0 -20592967.157 -4249880.363 -14403386.695 10 0 59522 81000.00000 0 -18668699.851 -4431083.839 -16774879.170 10 0 59522 81900.00000 0 -16497829.934 -4814100.995 -18819715.417 10 0 59522 82800.00000 0 -14141364.382 -5421518.483 -20498083.903 10 0 59522 83700.00000 0 -11665337.708 -6264168.766 -21777329.160 10 0 59522 84600.00000 0 -9138212.769 -7340477.628 -22632589.041 10 0 59522 85500.00000 0 -6628194.767 -8636348.430 -23047277.389 10 0 59523 0.00000 0 -4200571.067 -10125588.448 -23013403.099 10 0 59523 900.00000 0 -1915186.576 -11770860.555 -22531719.711 10 0 59523 1800.00000 0 175837.028 -13525118.340 -21611703.318 10 0 59523 2700.00000 0 2030048.232 -15333467.124 -20271359.768 10 0 59523 3600.00000 0 3616195.400 -17135370.771 -18536865.399 10 0 59523 4500.00000 0 4915278.227 -18867112.345 -16442048.914 10 0 59523 5400.00000 0 5921078.621 -20464405.246 -14027724.949 10 0 59523 6300.00000 0 6640150.925 -21865045.274 -11340892.690 10 0 59523 7200.00000 0 7091273.996 -23011492.400 -8433815.613 10 0 59523 8100.00000 0 7304390.370 -23853274.125 -5363000.585 10 0 59523 9000.00000 0 7319079.159 -24349109.857 -2188096.532 10 0 59523 9900.00000 0 7182628.729 -24468667.567 1029265.547 10 0 59523 10800.00000 0 6947791.899 -24193879.527 4226668.452 10 0 59523 11700.00000 0 6670319.436 -23519762.502 7342117.213 10 0 59523 12600.00000 0 6406376.590 -22454708.568 10315236.580 10 0 59523 13500.00000 0 6209952.054 -21020234.888 13088434.610 10 0 59523 14400.00000 0 6130368.637 -19250203.215 15608010.273 10 0 59523 15300.00000 0 6210000.382 -17189541.923 17825184.237 10 0 59523 16200.00000 0 6482291.974 -14892523.692 19697033.765 10 0 59523 17100.00000 0 6970163.501 -12420670.161 21187314.661 10 0 59523 18000.00000 0 7684867.462 -9840369.979 22267155.301 10 0 59523 18900.00000 0 8625346.167 -7220308.193 22915610.336 10 0 59523 19800.00000 0 9778117.017 -4628812.356 23120064.079 10 0 59523 20700.00000 0 11117691.329 -2131224.163 22876476.235 10 0 59523 21600.00000 0 12607510.514 212595.864 22189465.313 10 0 59523 22500.00000 0 14201362.007 2350528.453 21072227.785 10 0 59523 23400.00000 0 15845217.483 4240127.717 19546293.871 10 0 59523 24300.00000 0 17479418.245 5850145.980 17641123.617 10 0 59523 25200.00000 0 19041117.965 7161588.483 15393549.789 10 0 59523 26100.00000 0 20466881.731 8168254.273 12847077.042 10 0 59523 27000.00000 0 21695333.354 8876740.843 10051049.560 10 0 59523 27900.00000 0 22669740.139 9305912.322 7059702.142 10 0 59523 28800.00000 0 23340426.287 9485853.412 3931112.351 10 0 59523 29700.00000 0 23666912.678 9456353.152 726073.585 10 0 59523 30600.00000 0 23619691.773 9264982.576 -2493089.062 10 0 59523 31500.00000 0 23181561.387 8964847.859 -5663736.664 10 0 59523 32400.00000 0 22348459.523 8612114.657 -8724143.613 10 0 59523 33300.00000 0 21129763.505 8263409.399 -11614709.176 10 0 59523 34200.00000 0 19548039.421 7973208.774 -14279128.632 10 0 59523 35100.00000 0 17638251.312 7791329.312 -16665500.049 10 0 59523 36000.00000 0 15446462.580 7760624.756 -18727344.116 10 0 59523 36900.00000 0 13028083.790 7914990.000 -20424516.284 10 0 59523 37800.00000 0 10445740.227 8277757.175 -21723992.943 10 0 59523 38700.00000 0 7766848.611 8860552.622 -22600516.088 10 0 59523 39600.00000 0 5061004.583 9662663.677 -23037083.915 10 0 59523 40500.00000 0 2397290.240 10670942.414 -23025278.119 10 0 59523 41400.00000 0 -158385.939 11860250.603 -22565421.973 10 0 59523 42300.00000 0 -2545806.000 13194427.140 -21666566.645 10 0 59523 43200.00000 0 -4712711.944 14627737.087 -20346306.644 10 0 59523 44100.00000 0 -6616734.050 16106741.212 -18630428.536 10 0 59523 45000.00000 0 -8226898.872 17572507.105 -16552400.345 10 0 59523 45900.00000 0 -9524655.689 18963068.709 -14152712.046 10 0 59523 46800.00000 0 -10504380.441 20216030.712 -11478080.404 10 0 59523 47700.00000 0 -11173338.130 21271208.136 -8580534.087 10 0 59523 48600.00000 0 -11551107.479 22073190.186 -5516397.225 10 0 59523 49500.00000 0 -11668494.164 22573720.667 -2345191.488 10 0 59523 50400.00000 0 -11565980.231 22733795.061 871521.563 10 0 59523 51300.00000 0 -11291776.699 22525386.479 4071335.137 10 0 59523 52200.00000 0 -10899562.734 21932728.307 7192205.601 10 0 59523 53100.00000 0 -10446007.646 20953100.090 10173651.031 10 0 59523 54000.00000 0 -9988180.708 19597084.012 12957916.998 10 0 59523 54900.00000 0 -9580958.173 17888281.404 15491087.412 10 0 59523 55800.00000 0 -9274536.537 15862501.164 17724119.520 10 0 59523 56700.00000 0 -9112156.412 13566453.680 19613783.924 10 0 59523 57600.00000 0 -9128132.265 11056004.152 21123492.407 10 0 59523 58500.00000 0 -9346270.417 8394057.168 22223998.542 10 0 59523 59400.00000 0 -9778741.460 5648159.329 22893958.485 10 0 59523 60300.00000 0 -10425454.461 2887917.975 23120341.904 10 0 59523 61200.00000 0 -11273959.560 182341.711 22898685.503 10 0 59523 62100.00000 0 -12299883.871 -2402788.657 22233184.404 10 0 59523 63000.00000 0 -13467883.566 -4807411.268 21136619.293 10 0 59523 63900.00000 0 -14733073.698 -6979434.320 19630120.077 10 0 59523 64800.00000 0 -16042877.415 -8876654.832 17742769.612 10 0 59523 65700.00000 0 -17339218.635 -10468266.021 15511053.869 10 0 59523 66600.00000 0 -18560967.503 -11735890.933 12978167.873 10 0 59523 67500.00000 0 -19646536.972 -12674099.400 10193189.488 10 0 59523 68400.00000 0 -20536521.921 -13290386.712 7210135.892 10 0 59523 69300.00000 0 -21176269.722 -13604614.738 4086920.201 10 0 59523 70200.00000 0 -21518273.451 -13647938.907 884228.051 10 0 59523 71100.00000 0 -21524285.831 -13461266.263 -2335664.161 10 0 59523 72000.00000 0 -21167063.287 -13093309.828 -5510105.933 10 0 59523 72900.00000 0 -20431664.889 -12598321.951 -8577299.811 10 0 59523 73800.00000 0 -19316249.596 -12033603.267 -11477514.219 10 0 59523 74700.00000 0 -17832336.542 -11456893.637 -14154257.069 10 0 59523 75600.00000 0 -16004515.898 -10923756.684 -16555386.209 10 0 59523 76500.00000 0 -13869621.313 -10485069.846 -18634134.026 10 0 59523 77400.00000 0 -11475397.898 -10184727.324 -20350025.355 10 0 59523 78300.00000 0 -8878721.162 -10057654.125 -21669670.284 10 0 59523 79200.00000 0 -6143441.267 -10128215.913 -22567416.166 10 0 59523 80100.00000 0 -3337942.804 -10409092.411 -23025846.128 10 0 59523 81000.00000 0 -532522.074 -10900662.105 -23036114.658 10 0 59523 81900.00000 0 2203308.766 -11590924.234 -22598114.168 10 0 59523 82800.00000 0 4803478.338 -12455961.091 -21720469.836 10 0 59523 83700.00000 0 7207863.216 -13460920.804 -20420363.406 10 0 59523 84600.00000 0 9364541.882 -14561478.704 -18723189.952 10 0 59523 85500.00000 0 11231702.492 -15705715.229 -16662054.848 10 0 59524 0.00000 0 12779126.168 -16836330.683 -14277121.452 10 0 59524 900.00000 0 13989186.375 -17893103.769 -11614821.289 10 0 59524 1800.00000 0 14857322.441 -18815488.476 -8726945.862 10 0 59524 2700.00000 0 15391972.301 -19545241.763 -5669633.826 10 0 59524 3600.00000 0 15613967.206 -20028969.753 -2502276.731 10 0 59524 4500.00000 0 15555416.745 -20220485.799 713636.241 10 0 59524 5400.00000 0 15258132.708 -20082881.250 3915711.671 10 0 59524 6300.00000 0 14771659.677 -19590221.900 7041860.152 10 0 59524 7200.00000 0 14150996.377 -18728799.105 10031495.857 10 0 59524 8100.00000 0 13454104.536 -17497883.165 12826704.429 10 0 59524 9000.00000 0 12739310.459 -15909947.433 15373357.016 10 0 59524 9900.00000 0 12062708.651 -13990353.715 17622149.439 10 0 59524 10800.00000 0 11475676.356 -11776511.721 19529547.285 10 0 59524 11700.00000 0 11022602.909 -9316546.976 21058619.611 10 0 59524 12600.00000 0 10738928.643 -6667531.809 22179746.101 10 0 59524 13500.00000 0 10649575.060 -3893351.713 22871184.978 10 0 59524 14400.00000 0 10767831.718 -1062294.187 23119491.460 10 0 59524 15300.00000 0 11094746.373 1755541.435 22919779.123 10 0 59524 16200.00000 0 11619044.217 4490907.530 22275819.278 10 0 59524 17100.00000 0 12317580.221 7078036.325 21199976.138 10 0 59524 18000.00000 0 13156306.594 9457125.033 19712978.389 10 0 59524 18900.00000 0 14091716.012 11576576.097 17843530.580 10 0 59524 19800.00000 0 15072701.379 13394900.379 15627770.582 10 0 59524 20700.00000 0 16042755.268 14882204.524 13108582.302 10 0 59524 21600.00000 0 16942417.607 16021200.790 10334775.602 10 0 59524 22500.00000 0 17711869.275 16807697.103 7360148.134 10 0 59524 23400.00000 0 18293562.511 17250546.570 4242446.475 10 0 59524 24300.00000 0 18634776.877 17371058.408 1042246.190 10 0 59524 25200.00000 0 18689992.063 17201894.845 -2178227.492 10 0 59524 26100.00000 0 18422976.024 16785500.491 -5356315.056 10 0 59524 27000.00000 0 17808498.631 16172130.685 -8430149.808 10 0 59524 27900.00000 0 16833596.637 15417562.624 -11339871.874 10 0 59524 28800.00000 0 15498334.733 14580586.762 -14028804.236 10 0 59524 29700.00000 0 13816028.838 13720385.553 -16444566.784 10 0 59524 30600.00000 0 11812920.690 12893911.425 -18540105.675 10 0 59524 31500.00000 0 9527316.259 12153375.899 -20274616.978 10 0 59524 32400.00000 0 7008223.271 11543956.925 -21614346.125 10 0 59524 33300.00000 0 4313544.390 11101821.951 -22533247.275 10 0 59524 34200.00000 0 1507901.438 10852550.645 -23013489.709 10 0 59524 35100.00000 0 -1339818.565 10810023.926 -23045801.684 10 0 59524 36000.00000 0 -4159093.205 10975825.934 -22629645.445 10 0 59524 36900.00000 0 -6880460.718 11339183.723 -21773220.524 10 0 59524 37800.00000 0 -9438170.201 11877446.534 -20493295.874 10 0 59524 38700.00000 0 -11772676.113 12557083.652 -18814874.655 10 0 59524 39600.00000 0 -13832873.797 13335157.967 -16770698.779 10 0 59524 40500.00000 0 -15577983.935 14161212.283 -14400603.377 10 0 59524 41400.00000 0 -16979008.709 14979488.115 -11750734.134 10 0 59524 42300.00000 0 -18019700.397 15731382.756 -8872643.264 10 0 59524 43200.00000 0 -18697003.768 16358040.518 -5822282.016 10 0 59524 44100.00000 0 -19020955.705 16802968.489 -2658909.712 10 0 59524 45000.00000 0 -19014048.156 17014566.326 556059.127 10 0 59524 45900.00000 0 -18710083.059 16948463.353 3760246.902 10 0 59524 46800.00000 0 -18152568.943 16569564.543 6891521.030 10 0 59524 47700.00000 0 -17392727.949 15853719.355 9889194.521 10 0 59524 48600.00000 0 -16487198.026 14788943.323 12695195.937 10 0 59524 49500.00000 0 -15495527.449 13376141.097 15255186.570 10 0 59524 50400.00000 0 -14477567.062 11629300.488 17519603.712 10 0 59524 51300.00000 0 -13490869.581 9575149.013 19444610.740 10 0 59524 52200.00000 0 -12588204.520 7252286.569 20992936.621 10 0 59524 53100.00000 0 -11815292.274 4709829.522 22134589.535 10 0 59524 54000.00000 0 -11208851.511 2005621.311 22847431.825 10 0 59524 54900.00000 0 -10795040.931 -795917.594 23117605.942 10 0 59524 55800.00000 0 -10588360.134 -3626212.783 22939803.589 10 0 59524 56700.00000 0 -10591055.349 -6415133.361 22317373.059 10 0 59524 57600.00000 0 -10793055.020 -9093657.834 21262262.399 10 0 59524 58500.00000 0 -11172438.416 -11596499.396 19794798.893 10 0 59524 59400.00000 0 -11696418.361 -13864583.060 17943308.112 10 0 59524 60300.00000 0 -12322797.821 -15847272.742 15743578.683 10 0 59524 61200.00000 0 -13001840.162 -17504256.214 13238181.808 10 0 59524 62100.00000 0 -13678475.371 -18807009.661 10475657.367 10 0 59524 63000.00000 0 -14294749.992 -19739780.673 7509581.165 10 0 59524 63900.00000 0 -14792417.810 -20300048.151 4397530.614 10 0 59524 64800.00000 0 -15115561.749 -20498439.535 1199968.343 10 0 59524 65700.00000 0 -15213135.609 -20358108.418 -2020934.660 10 0 59524 66600.00000 0 -15041317.056 -19913598.459 -5202513.121 10 0 59524 67500.00000 0 -14565570.879 -19209241.458 -8282834.494 10 0 59524 68400.00000 0 -13762333.509 -18297157.406 -11201914.078 10 0 59524 69300.00000 0 -12620245.715 -17234941.452 -13902893.395 10 0 59524 70200.00000 0 -11140879.548 -16083136.211 -16333157.761 10 0 59524 71100.00000 0 -9338927.097 -14902597.081 -18445370.256 10 0 59524 72000.00000 0 -7241841.667 -13751862.761 -20198401.002 10 0 59524 72900.00000 0 -4888945.254 -12684642.799 -21558133.130 10 0 59524 73800.00000 0 -2330038.851 -11747528.850 -22498129.401 10 0 59524 74700.00000 0 376426.668 -10978026.518 -23000146.449 10 0 59524 75600.00000 0 3165542.995 -10402990.795 -23054486.890 10 0 59524 76500.00000 0 5968408.770 -10037530.665 -22660182.822 10 0 59524 77400.00000 0 8714763.155 -9884428.429 -21825007.662 10 0 59524 78300.00000 0 11335679.024 -9934097.271 -20565316.660 10 0 59524 79200.00000 0 13766203.818 -10165077.779 -18905719.781 10 0 59524 80100.00000 0 15947838.484 -10545051.301 -16878593.865 10 0 59524 81000.00000 0 17830751.887 -11032326.248 -14523444.101 10 0 59524 81900.00000 0 19375639.409 -11577733.484 -11886127.651 10 0 59524 82800.00000 0 20555149.294 -12126849.890 -9017955.067 10 0 59524 83700.00000 0 21354818.722 -12622455.376 -5974687.339 10 0 59524 84600.00000 0 21773482.094 -13007119.002 -2815448.447 10 0 59524 85500.00000 0 21823136.158 -13225804.595 398425.025 10 0 59525 0.00000 0 21528269.457 -13228385.639 3604574.348 10 0 59525 900.00000 0 20924685.603 -12971963.176 6740827.658 10 0 59525 1800.00000 0 20057871.647 -12422889.081 9746399.661 10 0 59525 2700.00000 0 18980980.580 -11558409.527 12563064.763 10 0 59525 3600.00000 0 17752513.667 -10367859.447 15136276.997 10 0 59525 4500.00000 0 16433800.073 -8853357.751 17416217.366 10 0 59525 5400.00000 0 15086379.335 -7029973.804 19358748.890 10 0 59525 6300.00000 0 13769395.910 -4925357.513 20926261.897 10 0 59525 7200.00000 0 12537114.160 -2578847.618 22088394.115 10 0 59525 8100.00000 0 11436656.828 -40094.035 22822612.674 10 0 59525 9000.00000 0 10506060.635 2632749.963 23114647.530 10 0 59525 9900.00000 0 9772729.448 5375192.294 22958768.412 10 0 59525 10800.00000 0 9252349.015 8118835.393 22357900.138 10 0 59525 11700.00000 0 8948308.283 10793979.214 21323573.810 10 0 59525 12600.00000 0 8851651.468 13332287.568 19875714.222 10 0 59525 13500.00000 0 8941563.182 15669408.605 18042266.618 10 0 59525 14400.00000 0 9186366.781 17747441.736 15858668.803 10 0 59525 15300.00000 0 9544994.749 19517149.008 13367177.480 10 0 59525 16200.00000 0 9968869.982 20939819.118 10616060.554 10 0 59525 17100.00000 0 10404119.360 21988706.234 7658669.813 10 0 59525 18000.00000 0 10794026.596 22649982.989 4552411.147 10 0 59525 18900.00000 0 11081620.747 22923167.199 1357631.756 10 0 59525 19800.00000 0 11212290.505 22821003.797 -1863554.225 10 0 59525 20700.00000 0 11136312.780 22368806.352 -5048478.418 10 0 59525 21600.00000 0 10811187.230 21603285.614 -8135145.056 10 0 59525 22500.00000 0 10203676.300 20570914.285 -11063447.154 10 0 59525 23400.00000 0 9291462.634 19325897.235 -13776347.167 10 0 59525 24300.00000 0 8064351.879 17927833.213 -16220998.034 10 0 59525 25200.00000 0 6524968.199 16439167.358 -18349781.741 10 0 59525 26100.00000 0 4688911.541 14922542.755 -20121244.217 10 0 59525 27000.00000 0 2584368.576 13438163.401 -21500907.813 10 0 59525 27900.00000 0 251192.497 12041280.311 -22461945.166 10 0 59525 28800.00000 0 -2260510.459 10779906.998 -22985701.280 10 0 59525 29700.00000 0 -4892229.179 9692860.511 -23062053.850 10 0 59525 30600.00000 0 -7579253.572 8808210.077 -22689605.206 10 0 59525 31500.00000 0 -10253146.183 8142197.939 -21875702.629 10 0 59525 32400.00000 0 -12844376.573 7698676.718 -20636287.247 10 0 59525 33300.00000 0 -15285008.777 7469085.649 -18995574.992 10 0 59525 34200.00000 0 -17511329.974 7432965.261 -16985576.420 10 0 59525 35100.00000 0 -19466311.271 7558987.235 -14645465.247 10 0 59525 36000.00000 0 -21101798.580 7806454.553 -12020808.344 10 0 59525 36900.00000 0 -22380342.989 8127207.241 -9162672.668 10 0 59525 37800.00000 0 -23276595.296 8467852.087 -6126626.897 10 0 59525 38700.00000 0 -23778207.732 8772221.150 -2971657.551 10 0 59525 39600.00000 0 -23886206.535 8983954.520 240978.920 10 0 59525 40500.00000 0 -23614821.341 9049097.709 3448945.510 10 0 59525 41400.00000 0 -22990779.992 8918603.700 6590032.288 10 0 59525 42300.00000 0 -22052099.687 8550633.971 9603358.713 10 0 59525 43200.00000 0 -20846426.255 7912561.452 12430547.583 10 0 59525 44100.00000 0 -19428991.942 6982591.032 15016848.272 10 0 59525 45000.00000 0 -17860277.686 5750929.462 17312188.059 10 0 59525 45900.00000 0 -16203477.773 4220455.225 19272132.075 10 0 59525 46800.00000 0 -14521872.507 2406859.837 20858734.274 10 0 59525 47700.00000 0 -12876218.086 338253.835 22041263.929 10 0 59525 48600.00000 0 -11322261.697 -1945747.217 22796794.617 10 0 59525 49500.00000 0 -9908484.490 -4395420.157 23110645.074 10 0 59525 50400.00000 0 -8674165.562 -6952758.575 22976663.936 10 0 59525 51300.00000 0 -7647846.761 -9553650.172 22397353.013 10 0 59525 52200.00000 0 -6846261.618 -12130318.634 21383826.523 10 0 59525 53100.00000 0 -6273772.719 -14613930.353 19955606.434 10 0 59525 54000.00000 0 -5922340.883 -16937259.352 18140256.946 10 0 59525 54900.00000 0 -5772027.523 -19037300.885 15972863.957 10 0 59525 55800.00000 0 -5792009.519 -20857725.725 13495368.261 10 0 59525 56700.00000 0 -5942064.404 -22351073.274 10755764.069 10 0 59525 57600.00000 0 -6174463.782 -23480591.887 7807177.173 10 0 59525 58500.00000 0 -6436195.492 -24221648.986 4706839.749 10 0 59525 59400.00000 0 -6671420.699 -24562651.217 1514981.168 10 0 59525 60300.00000 0 -6824061.701 -24505435.223 -1706343.848 10 0 59525 61200.00000 0 -6840410.241 -24065111.737 -4894466.558 10 0 59525 62100.00000 0 -6671644.737 -23269368.903 -7987330.869 10 0 59525 63000.00000 0 -6276148.371 -22157263.665 -10924710.543 10 0 59525 63900.00000 0 -5621528.168 -20777552.025 -13649392.084 10 0 59525 64800.00000 0 -4686247.795 -19186628.631 -16108299.170 10 0 59525 65700.00000 0 -3460803.175 -17446162.918 -18253535.706 10 0 59525 66600.00000 0 -1948389.553 -15620531.950 -20043326.221 10 0 59525 67500.00000 0 -165030.340 -13774158.652 -21442834.725 10 0 59525 68400.00000 0 1860839.009 -11968867.952 -22424845.741 10 0 59525 69300.00000 0 4089315.550 -10261372.382 -22970294.135 10 0 59525 70200.00000 0 6470462.966 -8700992.851 -23068633.631 10 0 59525 71100.00000 0 8946175.656 -7327709.991 -22718037.221 10 0 59525 72000.00000 0 11452395.043 -6170627.275 -21925425.999 10 0 59525 72900.00000 0 13921585.626 -5246909.336 -20706326.473 10 0 59525 73800.00000 0 16285367.534 -4561238.696 -19084559.644 10 0 59525 74700.00000 0 18477195.683 -4105812.117 -17091768.497 10 0 59525 75600.00000 0 20434973.965 -3860874.910 -14766793.619 10 0 59525 76500.00000 0 22103495.702 -3795768.889 -12154909.548 10 0 59525 77400.00000 0 23436608.882 -3870448.046 -9306937.231 10 0 59525 78300.00000 0 24399016.510 -4037396.415 -6278250.274 10 0 59525 79200.00000 0 24967637.705 -4243865.797 -3127694.674 10 0 59525 80100.00000 0 25132473.688 -4434337.762 83556.520 10 0 59525 81000.00000 0 24896943.666 -4553105.106 3293191.116 10 0 59525 81900.00000 0 24277677.780 -4546863.197 6438965.048 10 0 59525 82800.00000 0 23303776.975 -4367201.531 9459905.480 10 0 59525 83700.00000 0 22015571.849 -3972890.264 12297486.625 10 0 59525 84600.00000 0 20462933.189 -3331865.324 14896755.932 10 0 59525 85500.00000 0 18703205.343 -2422828.551 17207389.359 99